Aérodrome :
LOGIN :

S'inscrire | Disclaimer

   EN    FR    IT 

 










Légende :    VFR   VFR Marginal   IFR   IFR Intensif   IFR Très Intensif
Visi : 
Plafond : 
>= 8 km
>= 3000ft
5 à 8 km
1000 à 3000 ft
1500m à 5 km
500 à 1000 ft
800 à 1500m
200 à 500 ft
< 800m
< 200 ft
Symboles :   Orages  Brouillard  Fortes neiges  Fortes précipitations  Vent > 20 kt
SIGMETs :   Divers  Orages  Givrage  Turbulence  Onde Orograph.  Cendres Volcan.







- Altitude de l'aérodrome : 278 ft
- Code IATA : RJK


LDRI - Rijeka

DERNIER METAR :
  • 261630Z 27003KT 220V310 CAVOK 22/13 Q1012

METARs EXPIRÉS :
  • 261600Z 32003KT 230V010 9999 FEW043 23/12 Q1012
  • 261530Z 29004KT 220V340 9999 FEW043 23/12 Q1012
  • 261500Z 30005KT 260V340 9999 FEW043 22/12 Q1012
  • 261430Z 27005KT 230V300 9999 FEW043 23/12 Q1012
  • 261400Z 20006KT 140V300 9999 FEW043 24/11 Q1012

TAF TAF LDRI
Valide du 26 à 12h jusqu'au 27 à 12h UTC


261125Z 2612/2712 27005KT 9999 SCT045 TX22/2612Z TN13/2704Z
BECMG 2619/2621 06012KT
TEMPO 2702/2706 06005KT
BECMG 2706/2708 VRB02KT
Pas de NOTAMs connus pour ce terrain.



MET'MAP, la Météo Aéronautique d'un coup d'oeil ! - Copyright ORBIFLY Décembre 2007 - Disclaimer

ORBIFLY MET'MAP TEAM :

Programmation & Développement : Alexandra Zaïnal
Conception & Développement : Baudouin d'Aumeries
Co-Programmation & Développement : Marc-Olivier Méhu
Soutien technique & logistique : Manuel Goepfert

Contact : metmap@orbifly.com




SOURCES & CREDITS :

   NOAA